Location: Unspecified
(50.1700°N, 6.8600°E)
Time: 06:24:21
(UTC+00:00)

Exosat Rocket - Pass Details

Date: 24 January 2019
Orbit: 761 x 2513 km, 72.3° (Epoch: 19 February)

Event Time Altitude Azimuth Distance (km) Brightness Sun altitude
Exits shadow 04:41:50 27° 344° (NNW) 1,524 4.8 -24.6°
Maximum altitude 04:44:46 68° 61° (ENE) 939 4.0 -24.2°
Drops below altitude 10° 04:51:09 10° 145° (SE) 2,908 6.9 -23.1°
Sets 04:54:11 0° 147° (SSE) 4,091 7.7 -22.7°
